Saint Petersburg, FL

9:00 PM EST on February 20, 2017 (GMT -0500)
Whitted

Weather History for KSPG - November, 2014

Change the Weather History Date:

Tuesday, November 25, 2014

  Actual Average Record
Temperature  
Mean Temperature 72 °F -  
Max Temperature 77 °F 75 °F 93 °F (2002)
Min Temperature 68 °F 60 °F 27 °F (1998)
Cooling Degree Days 8    
Growing Degree Days 22 (Base 50)    
Moisture  
Dew Point 70 °F    
Average Humidity 94    
Maximum Humidity 100    
Minimum Humidity 89    
Precipitation  
Precipitation 2.24 in - - ()
Sea Level Pressure  
Sea Level Pressure 29.92 in    
Wind  
Wind Speed 6 mph (SSW)    
Max Wind Speed 21 mph    
Max Gust Speed 26 mph    
Visibility 3 miles    
Events Fog , Rain , Thunderstorm    
Averages and records for this station are not official NWS values.
T = Trace of Precipitation, MM = Missing Value Source: NWS Daily Summary

Daily Weather History Graph

Daily Weather History Graph

Search for Another Location

Airport or City:

Trip Planner

Search our weather history database for the weather conditions in past years. The results will help you decide how hot, cold, wet, or windy it might be!

Date:

Astronomy

Nov. 25, 2014 Rise Set
Actual Time 6:59 AM EST 5:35 PM EST
Civil Twilight 6:34 AM EST 6:00 PM EST
Nautical Twilight 6:05 AM EST 6:29 PM EST
Astronomical Twilight 5:37 AM EST 6:57 PM EST
Moon 9:46 AM EST (11/25) 8:55 PM EST (11/25)
Length of Visible Light 11h 26m
Length of Day
10h 35m
Waxing Crescent, 12% of the Moon is Illuminated
Nov 25
Waxing Crescent
Nov 29
First Quarter
Dec 6
Full
Dec 14
Last Quarter
Dec 21
New

Hourly Weather History & Observations

Time (EST) Temp. Dew Point Humidity Pressure Visibility Wind Dir Wind Speed Gust Speed Precip Events Conditions
12:53 AM 71.1 °F 69.1 °F 93% 29.99 in 4.0 mi South 3.5 mph - N/A   Clear
1:08 AM 70.0 °F 68.0 °F 93% 29.99 in 2.5 mi South 5.8 mph - N/A   Clear
1:13 AM 69.1 °F 68.0 °F 96% 29.99 in 1.8 mi South 3.5 mph - N/A   Partly Cloudy
1:22 AM 69.1 °F 68.0 °F 96% 29.99 in 2.0 mi SSW 3.5 mph - N/A   Partly Cloudy
1:36 AM 70.0 °F 68.0 °F 93% 29.99 in 3.0 mi South 4.6 mph - N/A   Partly Cloudy
1:46 AM 69.1 °F 68.0 °F 96% 29.99 in 2.5 mi South 4.6 mph - N/A   Clear
1:53 AM 69.1 °F 68.0 °F 96% 29.99 in 2.5 mi Calm Calm - N/A   Clear
2:16 AM 69.1 °F 68.0 °F 96% 29.98 in 0.8 mi Calm Calm - N/A   Clear
2:19 AM 69.1 °F 68.0 °F 96% 29.98 in 0.5 mi Calm Calm - N/A Fog Fog
2:27 AM 68.0 °F 66.9 °F 96% 29.98 in 0.2 mi Calm Calm - N/A Fog Fog
2:34 AM 69.1 °F 66.9 °F 93% 29.98 in 0.5 mi Calm Calm - N/A Fog Fog
2:53 AM 68.0 °F 66.9 °F 96% 29.96 in 0.5 mi SE 3.5 mph - N/A Fog Fog
2:57 AM 68.0 °F 66.9 °F 96% 29.96 in 1.0 mi South 3.5 mph - N/A   Mist
3:01 AM 69.1 °F 66.9 °F 93% 29.96 in 2.5 mi South 3.5 mph - N/A   Clear
3:09 AM 70.0 °F 68.0 °F 93% 29.96 in 4.0 mi South 4.6 mph - N/A   Clear
3:53 AM 69.1 °F 66.9 °F 93% 29.95 in 4.0 mi Calm Calm - N/A   Clear
4:07 AM 70.0 °F 66.9 °F 90% 29.96 in 4.0 mi SW 3.5 mph - N/A   Scattered Clouds
4:26 AM 70.0 °F 68.0 °F 93% 29.95 in 2.5 mi Calm Calm - N/A   Mostly Cloudy
4:53 AM 70.0 °F 69.1 °F 97% 29.96 in 2.5 mi SSW 6.9 mph - N/A   Mostly Cloudy
5:06 AM 71.1 °F 69.1 °F 93% 29.96 in 2.0 mi SSW 5.8 mph - N/A   Mostly Cloudy
5:27 AM 70.0 °F 69.1 °F 97% 29.96 in 2.0 mi SSW 6.9 mph - N/A   Overcast
5:51 AM 71.6 °F 69.8 °F 94% 29.97 in 2.5 mi SSW 4.6 mph - N/A   Overcast
5:53 AM 72.0 °F 70.0 °F 93% 29.96 in 2.5 mi SSW 4.6 mph - N/A   Overcast
6:12 AM 71.1 °F 70.0 °F 96% 29.96 in 2.5 mi SSW 4.6 mph - N/A Thunderstorm Overcast
6:21 AM 71.1 °F 70.0 °F 96% 29.96 in 2.5 mi South 4.6 mph - N/A   Overcast
6:34 AM 70.0 °F 69.1 °F 97% 29.96 in 1.5 mi South 3.5 mph - N/A Thunderstorm Overcast
6:43 AM 70.0 °F 69.1 °F 97% 29.96 in 1.2 mi South 3.5 mph - N/A Thunderstorm Overcast
6:53 AM 70.0 °F 69.1 °F 97% 29.96 in 1.5 mi South 3.5 mph - N/A Thunderstorm Overcast
6:57 AM 70.0 °F 68.0 °F 93% 29.96 in 2.0 mi SW 3.5 mph - N/A   Overcast
7:14 AM 71.1 °F 70.0 °F 96% 29.96 in 3.0 mi Calm Calm - N/A   Overcast
7:24 AM 71.1 °F 70.0 °F 96% 29.96 in 2.5 mi Calm Calm - N/A   Overcast
7:44 AM 70.0 °F 68.0 °F 93% 29.97 in 1.0 mi SE 4.6 mph - N/A   Overcast
7:49 AM 69.8 °F 68.0 °F 94% 29.97 in 1.0 mi Calm Calm - 0.07 in Rain , Thunderstorm Heavy Rain
7:53 AM 70.0 °F 69.1 °F 97% 29.98 in 1.2 mi Variable 3.5 mph - 0.08 in Rain , Thunderstorm Rain
8:01 AM 71.1 °F 69.1 °F 93% 29.98 in 1.0 mi SSE 5.8 mph - 0.07 in Rain , Thunderstorm Heavy Rain
8:04 AM 71.1 °F 69.1 °F 93% 29.98 in 0.8 mi SSW 3.5 mph - 0.07 in Rain Light Rain
8:10 AM 72.0 °F 70.0 °F 93% 29.98 in 1.2 mi SSW 4.6 mph - 0.07 in Rain Light Rain
8:21 AM 72.0 °F 70.0 °F 93% 29.98 in 1.5 mi SSE 4.6 mph - 0.07 in Rain Light Rain
8:42 AM 72.0 °F 71.1 °F 97% 29.98 in 2.0 mi SW 5.8 mph - 0.07 in Rain Light Rain
8:51 AM 73.4 °F 71.6 °F 94% 29.98 in 5.0 mi SW 8.1 mph - 0.08 in Rain Rain
8:53 AM 73.9 °F 72.0 °F 93% 29.98 in 5.0 mi SW 8.1 mph - 0.08 in Rain Light Rain
8:59 AM 73.9 °F 72.0 °F 93% 29.98 in 1.5 mi SW 9.2 mph - 0.00 in Rain Light Rain
9:08 AM 73.9 °F 73.0 °F 97% 29.98 in 0.2 mi SW 9.2 mph - 0.00 in Fog Fog
9:21 AM 73.9 °F 73.0 °F 97% 29.97 in 0.5 mi SW 9.2 mph - 0.00 in Fog Fog
9:31 AM 73.9 °F 73.0 °F 97% 29.97 in 2.0 mi SW 10.4 mph - 0.00 in Rain Light Rain
9:39 AM 75.0 °F 73.0 °F 94% 29.97 in 3.0 mi SW 9.2 mph - 0.00 in Rain Light Rain
9:53 AM 75.0 °F 73.9 °F 96% 29.97 in 6.0 mi SW 9.2 mph - 0.00 in Rain Light Rain
10:38 AM 75.0 °F 73.0 °F 94% 29.96 in 1.5 mi SW 13.8 mph - 0.06 in Rain Heavy Rain
10:53 AM 75.0 °F 73.0 °F 94% 29.96 in 3.0 mi SW 11.5 mph - 0.10 in Rain Light Rain
11:10 AM 75.0 °F 73.0 °F 94% 29.94 in 2.5 mi SSW 12.7 mph - 0.00 in   Overcast
11:20 AM 75.0 °F 73.9 °F 96% 29.94 in 4.0 mi SSW 13.8 mph - 0.00 in   Overcast
11:43 AM 75.9 °F 73.9 °F 94% 29.94 in 7.0 mi SSW 12.7 mph - 0.00 in   Overcast
11:51 AM 75.2 °F 73.4 °F 94% 29.94 in 7.0 mi SSW 12.7 mph - 0.00 in   Overcast
11:53 AM 75.9 °F 73.9 °F 94% 29.94 in 7.0 mi SW 13.8 mph - 0.00 in   Overcast
12:42 PM 77.0 °F 73.9 °F 90% 29.90 in 8.0 mi SSW 17.3 mph 24.2 mph 0.00 in   Overcast
12:53 PM 77.0 °F 73.9 °F 90% 29.89 in 8.0 mi SSW 19.6 mph - 0.00 in   Overcast
1:00 PM 77.0 °F 73.9 °F 90% 29.88 in 8.0 mi SSW 17.3 mph - N/A   Overcast
1:16 PM 75.9 °F 73.9 °F 94% 29.87 in 6.0 mi SSW 18.4 mph 26.5 mph 0.00 in Rain Light Rain
1:39 PM 75.9 °F 73.9 °F 94% 29.87 in 7.0 mi SSW 19.6 mph - 0.00 in   Overcast
1:53 PM 77.0 °F 73.9 °F 90% 29.87 in 7.0 mi SSW 16.1 mph - 0.00 in   Overcast
2:53 PM 75.9 °F 73.9 °F 94% 29.87 in 8.0 mi SSW 16.1 mph 26.5 mph N/A   Overcast
3:06 PM 75.9 °F 73.9 °F 94% 29.87 in 8.0 mi SSW 19.6 mph 26.5 mph N/A   Overcast
3:16 PM 75.9 °F 73.9 °F 94% 29.87 in 9.0 mi SSW 15.0 mph - N/A   Overcast
3:53 PM 75.0 °F 73.0 °F 94% 29.86 in 7.0 mi SSW 16.1 mph - N/A   Overcast
4:49 PM 75.2 °F 73.4 °F 94% 29.85 in 8.0 mi SSW 12.7 mph - N/A   Overcast
4:53 PM 75.0 °F 73.0 °F 94% 29.85 in 8.0 mi SSW 11.5 mph - N/A   Overcast
5:04 PM 75.0 °F 73.0 °F 94% 29.85 in 1.5 mi SSW 18.4 mph 24.2 mph 0.09 in Rain Heavy Rain
5:16 PM 75.0 °F 73.0 °F 94% 29.86 in 2.0 mi SW 12.7 mph - 0.14 in Rain Light Rain
5:19 PM 75.0 °F 73.0 °F 94% 29.86 in 3.0 mi SSW 13.8 mph - 0.16 in Rain Light Rain
5:34 PM 75.0 °F 73.0 °F 94% 29.86 in 3.0 mi SSW 16.1 mph 21.9 mph 0.21 in Rain Rain
5:41 PM 75.0 °F 73.0 °F 94% 29.86 in 2.5 mi SSW 16.1 mph - 0.24 in Rain Light Rain
5:48 PM 75.2 °F 71.6 °F 89% 29.86 in 4.0 mi SW 20.7 mph 26.5 mph 0.24 in Rain Light Rain
5:53 PM 73.9 °F 72.0 °F 93% 29.87 in 8.0 mi SSW 15.0 mph 26.5 mph 0.24 in Rain Light Rain
6:01 PM 73.9 °F 72.0 °F 93% 29.87 in 9.0 mi SSW 13.8 mph - 0.00 in Rain Light Rain
6:42 PM 72.0 °F 69.1 °F 91% 29.89 in 3.0 mi West 5.8 mph - 0.18 in Rain , Thunderstorm Heavy Rain
6:53 PM 72.0 °F 69.1 °F 91% 29.89 in 10.0 mi WNW 9.2 mph - 0.18 in Rain , Thunderstorm Light Rain
7:07 PM 72.0 °F 69.1 °F 91% 29.89 in 5.0 mi NW 8.1 mph - 0.02 in Rain , Thunderstorm Light Rain
7:16 PM 72.0 °F 70.0 °F 93% 29.88 in 4.0 mi NNW 5.8 mph - 0.05 in Rain Rain
7:29 PM 72.0 °F 70.0 °F 93% 29.87 in 4.0 mi NNE 3.5 mph - 0.10 in Rain , Thunderstorm Heavy Rain
7:53 PM 70.0 °F 69.1 °F 97% 29.89 in 1.8 mi Calm Calm - 0.28 in Rain , Thunderstorm Heavy Thunderstorms and Rain
7:58 PM 71.1 °F 69.1 °F 93% 29.89 in 0.8 mi Calm Calm - 0.18 in Rain , Thunderstorm Heavy Thunderstorms and Rain
8:11 PM 71.1 °F 69.1 °F 93% 29.89 in 1.5 mi Calm Calm - 0.40 in Rain , Thunderstorm Rain
8:16 PM 70.0 °F 69.1 °F 97% 29.89 in 3.0 mi Calm Calm - 0.40 in Rain , Thunderstorm Light Rain
8:21 PM 71.1 °F 69.1 °F 93% 29.90 in 2.0 mi ESE 3.5 mph - 0.46 in Rain , Thunderstorm Heavy Thunderstorms and Rain
8:30 PM 71.1 °F 69.1 °F 93% 29.90 in 1.5 mi SSE 3.5 mph - 0.58 in Rain , Thunderstorm Heavy Thunderstorms and Rain
8:53 PM 71.1 °F 69.1 °F 93% 29.89 in 0.8 mi SE 4.6 mph - 0.99 in Rain , Thunderstorm Heavy Rain
9:00 PM 70.0 °F 69.1 °F 97% 29.89 in 0.8 mi SE 3.5 mph - 0.03 in Rain , Thunderstorm Heavy Thunderstorms and Rain
9:05 PM 70.0 °F 69.1 °F 97% 29.89 in 1.0 mi Calm Calm - 0.04 in Rain , Thunderstorm Thunderstorms and Rain
9:12 PM 70.0 °F 69.1 °F 97% 29.89 in 1.5 mi SSE 3.5 mph - 0.05 in Rain , Thunderstorm Thunderstorms and Rain
9:22 PM 70.0 °F 68.0 °F 93% 29.87 in 1.0 mi SE 9.2 mph - 0.10 in Rain , Thunderstorm Heavy Rain
9:36 PM 70.0 °F 69.1 °F 97% 29.87 in 2.0 mi SE 3.5 mph - 0.14 in Rain Rain
9:53 PM 70.0 °F 68.0 °F 93% 29.87 in 1.5 mi South 8.1 mph - 0.19 in Rain Rain
10:21 PM 69.1 °F 69.1 °F 100% 29.86 in 2.5 mi SSE 6.9 mph - 0.05 in Rain Light Rain
10:28 PM 70.0 °F 68.0 °F 93% 29.86 in 3.0 mi South 10.4 mph - 0.05 in Rain Light Rain
10:53 PM 70.0 °F 69.1 °F 97% 29.86 in 5.0 mi South 8.1 mph - 0.07 in Rain Light Rain
11:17 PM 70.0 °F 69.1 °F 97% 29.84 in 7.0 mi South 4.6 mph - 0.02 in Rain Light Rain
11:26 PM 70.0 °F 68.0 °F 93% 29.83 in 4.0 mi South 9.2 mph - 0.03 in Rain Light Rain
11:53 PM 71.1 °F 70.0 °F 96% 29.83 in 9.0 mi SW 6.9 mph - 0.03 in   Overcast